Time,TemperatureF,DewpointF,PressureIn,WindDirection,WindDirectionDegrees,WindSpeedMPH,WindSpeedGustMPH,Humidity,HourlyPrecipIn,Conditions,Clouds,dailyrainin,SolarRadiationWatts/m^2,SoftwareType,DateUTC
2013-01-08 00:12:00,30.0,15.0,-100.00,SSE,156,4.0,5.0,54,0.00,,,0.00,0.000000,,2013-01-08 07:12:00,
2013-01-08 00:22:00,30.0,15.0,-100.00,SSE,156,4.0,5.0,54,0.00,,,0.00,0.000000,,2013-01-08 07:22:00,
2013-01-08 00:32:00,30.0,15.0,-100.00,SSE,156,4.0,5.0,54,0.00,,,0.00,0.000000,,2013-01-08 07:32:00,
2013-01-08 00:42:00,30.0,15.0,-100.00,SSE,156,4.0,5.0,54,0.00,,,0.00,0.000000,,2013-01-08 07:42:00,
2013-01-08 00:51:00,29.0,17.0,-100.00,SSW,194,7.0,9.0,60,0.00,,,0.00,0.000000,,2013-01-08 07:51:00,
2013-01-08 01:22:00,29.0,17.0,-100.00,SSW,194,7.0,9.0,60,0.00,,,0.00,0.000000,,2013-01-08 08:22:00,
2013-01-08 01:32:00,29.0,17.0,-100.00,SSW,194,7.0,9.0,60,0.00,,,0.00,0.000000,,2013-01-08 08:32:00,
2013-01-08 01:42:00,29.0,17.0,-100.00,SSW,194,7.0,9.0,60,0.00,,,0.00,0.000000,,2013-01-08 08:42:00,
2013-01-08 01:51:00,30.0,17.0,-100.00,SSE,160,7.0,9.0,57,0.00,,,0.00,0.000000,,2013-01-08 08:51:00,
2013-01-08 02:12:00,30.0,17.0,-100.00,SSE,160,7.0,9.0,57,0.00,,,0.00,0.000000,,2013-01-08 09:12:00,
2013-01-08 02:22:00,30.0,17.0,-100.00,SSE,160,7.0,9.0,57,0.00,,,0.00,0.000000,,2013-01-08 09:22:00,
2013-01-08 02:32:00,30.0,17.0,-100.00,SSE,160,7.0,9.0,57,0.00,,,0.00,0.000000,,2013-01-08 09:32:00,
2013-01-08 02:42:00,30.0,17.0,-100.00,SSE,160,7.0,9.0,57,0.00,,,0.00,0.000000,,2013-01-08 09:42:00,
2013-01-08 02:51:00,30.0,18.0,-100.00,South,179,6.0,11.0,60,0.00,,,0.00,0.000000,,2013-01-08 09:51:00,
2013-01-08 03:12:00,30.0,18.0,-100.00,South,179,6.0,11.0,60,0.00,,,0.00,0.000000,,2013-01-08 10:12:00,
2013-01-08 03:22:00,30.0,18.0,-100.00,South,179,6.0,11.0,60,0.00,,,0.00,0.000000,,2013-01-08 10:22:00,
2013-01-08 03:32:00,30.0,18.0,-100.00,South,179,6.0,11.0,60,0.00,,,0.00,0.000000,,2013-01-08 10:32:00,
2013-01-08 03:42:00,30.0,18.0,-100.00,South,179,6.0,11.0,60,0.00,,,0.00,0.000000,,2013-01-08 10:42:00,
2013-01-08 03:51:00,30.0,17.0,-100.00,South,185,11.0,15.0,58,0.00,,,0.00,0.000000,,2013-01-08 10:51:00,
2013-01-08 04:12:00,30.0,17.0,-100.00,South,185,11.0,15.0,58,0.00,,,0.00,0.000000,,2013-01-08 11:12:00,
2013-01-08 04:22:00,30.0,17.0,-100.00,South,185,11.0,15.0,58,0.00,,,0.00,0.000000,,2013-01-08 11:22:00,
2013-01-08 04:33:00,30.0,17.0,-100.00,South,185,11.0,15.0,58,0.00,,,0.00,0.000000,,2013-01-08 11:33:00,
2013-01-08 04:42:00,30.0,17.0,-100.00,South,185,11.0,15.0,58,0.00,,,0.00,0.000000,,2013-01-08 11:42:00,
2013-01-08 04:51:00,29.0,16.0,-100.00,South,184,9.0,12.0,57,0.00,,,0.00,0.000000,,2013-01-08 11:51:00,
2013-01-08 05:12:00,29.0,16.0,-100.00,South,184,9.0,12.0,57,0.00,,,0.00,0.000000,,2013-01-08 12:12:00,
2013-01-08 05:22:00,29.0,16.0,-100.00,South,184,9.0,12.0,57,0.00,,,0.00,0.000000,,2013-01-08 12:22:00,
2013-01-08 05:33:00,29.0,16.0,-100.00,South,184,9.0,12.0,57,0.00,,,0.00,0.000000,,2013-01-08 12:33:00,
2013-01-08 05:42:00,29.0,16.0,-100.00,South,184,9.0,12.0,57,0.00,,,0.00,0.000000,,2013-01-08 12:42:00,
2013-01-08 05:51:00,29.0,15.0,-100.00,South,183,6.0,12.0,56,0.00,,,0.00,0.000000,,2013-01-08 12:51:00,
2013-01-08 06:12:00,29.0,15.0,-100.00,South,183,6.0,12.0,56,0.00,,,0.00,0.000000,,2013-01-08 13:12:00,
2013-01-08 06:22:00,29.0,15.0,-100.00,South,183,6.0,12.0,56,0.00,,,0.00,0.000000,,2013-01-08 13:22:00,
2013-01-08 06:33:00,29.0,15.0,-100.00,South,183,6.0,12.0,56,0.00,,,0.00,0.000000,,2013-01-08 13:33:00,
2013-01-08 06:42:00,29.0,15.0,-100.00,South,183,6.0,12.0,56,0.00,,,0.00,0.000000,,2013-01-08 13:42:00,
2013-01-08 06:51:00,29.0,15.0,-100.00,South,191,5.0,8.0,56,0.00,,,0.00,0.000000,,2013-01-08 13:51:00,
2013-01-08 07:12:00,29.0,15.0,-100.00,South,191,5.0,8.0,56,0.00,,,0.00,0.000000,,2013-01-08 14:12:00,
2013-01-08 07:23:00,29.0,15.0,-100.00,South,191,5.0,8.0,56,0.00,,,0.00,0.000000,,2013-01-08 14:23:00,
2013-01-08 07:33:00,29.0,15.0,-100.00,South,191,5.0,8.0,56,0.00,,,0.00,0.000000,,2013-01-08 14:33:00,
2013-01-08 07:43:00,29.0,15.0,-100.00,South,191,5.0,8.0,56,0.00,,,0.00,0.000000,,2013-01-08 14:43:00,
2013-01-08 07:51:00,29.0,15.0,-100.00,SW,223,4.0,8.0,56,0.00,,,0.00,1.000000,,2013-01-08 14:51:00,
2013-01-08 08:12:00,29.0,15.0,-100.00,SW,223,4.0,8.0,56,0.00,,,0.00,1.000000,,2013-01-08 15:12:00,
2013-01-08 08:22:00,29.0,15.0,-100.00,SW,223,4.0,8.0,56,0.00,,,0.00,1.000000,,2013-01-08 15:22:00,
2013-01-08 08:33:00,29.0,15.0,-100.00,SW,223,4.0,8.0,56,0.00,,,0.00,1.000000,,2013-01-08 15:33:00,
2013-01-08 08:43:00,29.0,15.0,-100.00,SW,223,4.0,8.0,56,0.00,,,0.00,1.000000,,2013-01-08 15:43:00,
2013-01-08 08:51:00,34.0,17.0,-100.00,NNW,333,7.0,18.0,49,0.00,,,0.00,47.000000,,2013-01-08 15:51:00,
2013-01-08 09:12:00,34.0,17.0,-100.00,NNW,333,7.0,18.0,49,0.00,,,0.00,47.000000,,2013-01-08 16:12:00,
2013-01-08 09:22:00,34.0,17.0,-100.00,NNW,333,7.0,18.0,49,0.00,,,0.00,47.000000,,2013-01-08 16:22:00,
2013-01-08 09:34:00,34.0,17.0,-100.00,NNW,333,7.0,18.0,49,0.00,,,0.00,47.000000,,2013-01-08 16:34:00,
2013-01-08 09:42:00,34.0,17.0,-100.00,NNW,333,7.0,18.0,49,0.00,,,0.00,47.000000,,2013-01-08 16:42:00,
2013-01-08 09:51:00,38.0,18.0,-100.00,SSW,198,1.0,19.0,44,0.00,,,0.00,193.000000,,2013-01-08 16:51:00,
2013-01-08 10:13:00,38.0,18.0,-100.00,SSW,198,1.0,19.0,44,0.00,,,0.00,193.000000,,2013-01-08 17:13:00,
2013-01-08 10:23:00,38.0,18.0,-100.00,SSW,198,1.0,19.0,44,0.00,,,0.00,193.000000,,2013-01-08 17:23:00,
2013-01-08 10:33:00,38.0,18.0,-100.00,SSW,198,1.0,19.0,44,0.00,,,0.00,193.000000,,2013-01-08 17:33:00,
2013-01-08 10:43:00,38.0,18.0,-100.00,SSW,198,1.0,19.0,44,0.00,,,0.00,193.000000,,2013-01-08 17:43:00,
2013-01-08 10:51:00,42.0,18.0,-100.00,WNW,292,5.0,7.0,38,0.00,,,0.00,244.000000,,2013-01-08 17:51:00,
2013-01-08 11:23:00,42.0,18.0,-100.00,WNW,292,5.0,7.0,38,0.00,,,0.00,244.000000,,2013-01-08 18:23:00,
2013-01-08 11:33:00,42.0,18.0,-100.00,WNW,292,5.0,7.0,38,0.00,,,0.00,244.000000,,2013-01-08 18:33:00,
2013-01-08 11:43:00,42.0,18.0,-100.00,WNW,292,5.0,7.0,38,0.00,,,0.00,244.000000,,2013-01-08 18:43:00,
2013-01-08 11:51:00,40.0,18.0,-100.00,NW,306,8.0,22.0,40,0.00,,,0.00,302.000000,,2013-01-08 18:51:00,
2013-01-08 12:12:00,40.0,18.0,-100.00,NW,306,8.0,22.0,40,0.00,,,0.00,302.000000,,2013-01-08 19:12:00,
2013-01-08 12:23:00,40.0,18.0,-100.00,NW,306,8.0,22.0,40,0.00,,,0.00,302.000000,,2013-01-08 19:23:00,
2013-01-08 12:32:00,40.0,18.0,-100.00,NW,306,8.0,22.0,40,0.00,,,0.00,302.000000,,2013-01-08 19:32:00,
2013-01-08 12:42:00,40.0,18.0,-100.00,NW,306,8.0,22.0,40,0.00,,,0.00,302.000000,,2013-01-08 19:42:00,
2013-01-08 12:51:00,39.0,16.0,-100.00,NW,324,22.0,31.0,39,0.00,,,-99.99,305.000000,,2013-01-08 19:51:00,
2013-01-08 13:23:00,39.0,16.0,-100.00,NW,324,22.0,31.0,39,0.00,,,-99.99,305.000000,,2013-01-08 20:23:00,
2013-01-08 13:33:00,39.0,16.0,-100.00,NW,324,22.0,31.0,39,0.00,,,-99.99,305.000000,,2013-01-08 20:33:00,
2013-01-08 13:43:00,39.0,16.0,-100.00,NW,324,22.0,31.0,39,0.00,,,-99.99,305.000000,,2013-01-08 20:43:00,
2013-01-08 13:51:00,40.0,18.0,-100.00,NNW,332,15.0,29.0,41,0.00,,,0.00,229.000000,,2013-01-08 20:51:00,
2013-01-08 14:13:00,40.0,18.0,-100.00,NNW,332,15.0,29.0,41,0.00,,,0.00,229.000000,,2013-01-08 21:13:00,
2013-01-08 14:23:00,40.0,18.0,-100.00,NNW,332,15.0,29.0,41,0.00,,,0.00,229.000000,,2013-01-08 21:23:00,
2013-01-08 14:33:00,40.0,18.0,-100.00,NNW,332,15.0,29.0,41,0.00,,,0.00,229.000000,,2013-01-08 21:33:00,
2013-01-08 14:43:00,40.0,18.0,-100.00,NNW,332,15.0,29.0,41,0.00,,,0.00,229.000000,,2013-01-08 21:43:00,
2013-01-08 14:51:00,39.0,19.0,-100.00,NW,324,14.0,24.0,44,0.00,,,0.00,194.000000,,2013-01-08 21:51:00,
2013-01-08 15:12:00,39.0,19.0,-100.00,NW,324,14.0,24.0,44,0.00,,,0.00,194.000000,,2013-01-08 22:12:00,
2013-01-08 15:23:00,39.0,19.0,-100.00,NW,324,14.0,24.0,44,0.00,,,0.00,194.000000,,2013-01-08 22:23:00,
2013-01-08 15:33:00,39.0,19.0,-100.00,NW,324,14.0,24.0,44,0.00,,,0.00,194.000000,,2013-01-08 22:33:00,
2013-01-08 15:43:00,39.0,19.0,-100.00,NW,324,14.0,24.0,44,0.00,,,0.00,194.000000,,2013-01-08 22:43:00,
2013-01-08 15:51:00,38.0,18.0,-100.00,NW,317,14.0,28.0,44,0.00,,,0.00,164.000000,,2013-01-08 22:51:00,
2013-01-08 16:22:00,38.0,18.0,-100.00,NW,317,14.0,28.0,44,0.00,,,0.00,164.000000,,2013-01-08 23:22:00,
2013-01-08 16:33:00,38.0,18.0,-100.00,NW,317,14.0,28.0,44,0.00,,,0.00,164.000000,,2013-01-08 23:33:00,
2013-01-08 16:43:00,38.0,18.0,-100.00,NW,317,14.0,28.0,44,0.00,,,0.00,164.000000,,2013-01-08 23:43:00,
2013-01-08 16:51:00,35.0,15.0,-100.00,WNW,295,7.0,17.0,44,0.00,,,0.00,24.000000,,2013-01-08 23:51:00,
2013-01-08 17:12:00,35.0,15.0,-100.00,WNW,295,7.0,17.0,44,0.00,,,0.00,24.000000,,2013-01-09 00:12:00,
2013-01-08 17:22:00,35.0,15.0,-100.00,WNW,295,7.0,17.0,44,0.00,,,0.00,24.000000,,2013-01-09 00:22:00,
2013-01-08 17:33:00,35.0,15.0,-100.00,WNW,295,7.0,17.0,44,0.00,,,0.00,24.000000,,2013-01-09 00:33:00,
2013-01-08 17:42:00,35.0,15.0,-100.00,WNW,295,7.0,17.0,44,0.00,,,0.00,24.000000,,2013-01-09 00:42:00,
2013-01-08 17:51:00,32.0,13.0,-100.00,North,352,12.0,16.0,45,0.00,,,0.00,0.000000,,2013-01-09 00:51:00,
2013-01-08 18:22:00,32.0,13.0,-100.00,North,352,12.0,16.0,45,0.00,,,0.00,0.000000,,2013-01-09 01:22:00,
2013-01-08 18:33:00,32.0,13.0,-100.00,North,352,12.0,16.0,45,0.00,,,0.00,0.000000,,2013-01-09 01:33:00,
2013-01-08 18:42:00,32.0,13.0,-100.00,North,352,12.0,16.0,45,0.00,,,0.00,0.000000,,2013-01-09 01:42:00,
2013-01-08 18:51:00,29.0,17.0,-100.00,NNE,13,3.0,12.0,61,0.00,,,0.00,0.000000,,2013-01-09 01:51:00,
2013-01-08 19:22:00,29.0,17.0,-100.00,NNE,13,3.0,12.0,61,0.00,,,0.00,0.000000,,2013-01-09 02:22:00,
2013-01-08 19:33:00,29.0,17.0,-100.00,NNE,13,3.0,12.0,61,0.00,,,0.00,0.000000,,2013-01-09 02:33:00,
2013-01-08 19:43:00,29.0,17.0,-100.00,NNE,13,3.0,12.0,61,0.00,,,0.00,0.000000,,2013-01-09 02:43:00,
2013-01-08 19:51:00,27.0,17.0,-100.00,SSE,158,3.0,6.0,65,0.00,,,0.00,0.000000,,2013-01-09 02:51:00,
2013-01-08 20:12:00,27.0,17.0,-100.00,SSE,158,3.0,6.0,65,0.00,,,0.00,0.000000,,2013-01-09 03:12:00,
2013-01-08 20:22:00,27.0,17.0,-100.00,SSE,158,3.0,6.0,65,0.00,,,0.00,0.000000,,2013-01-09 03:22:00,
2013-01-08 20:33:00,27.0,17.0,-100.00,SSE,158,3.0,6.0,65,0.00,,,0.00,0.000000,,2013-01-09 03:33:00,
2013-01-08 20:43:00,27.0,17.0,-100.00,SSE,158,3.0,6.0,65,0.00,,,0.00,0.000000,,2013-01-09 03:43:00,
2013-01-08 20:51:00,26.0,18.0,-100.00,SSE,151,6.0,11.0,70,0.00,,,0.00,0.000000,,2013-01-09 03:51:00,
2013-01-08 21:12:00,26.0,18.0,-100.00,SSE,151,6.0,11.0,70,0.00,,,0.00,0.000000,,2013-01-09 04:12:00,
2013-01-08 21:22:00,26.0,18.0,-100.00,SSE,151,6.0,11.0,70,0.00,,,0.00,0.000000,,2013-01-09 04:22:00,
2013-01-08 21:32:00,26.0,18.0,-100.00,SSE,151,6.0,11.0,70,0.00,,,0.00,0.000000,,2013-01-09 04:32:00,
2013-01-08 21:42:00,26.0,18.0,-100.00,SSE,151,6.0,11.0,70,0.00,,,0.00,0.000000,,2013-01-09 04:42:00,
2013-01-08 21:51:00,24.0,17.0,-100.00,SSE,158,9.0,12.0,73,0.00,,,0.00,0.000000,,2013-01-09 04:51:00,
2013-01-08 22:12:00,24.0,17.0,-100.00,SSE,158,9.0,12.0,73,0.00,,,0.00,0.000000,,2013-01-09 05:12:00,
2013-01-08 22:22:00,24.0,17.0,-100.00,SSE,158,9.0,12.0,73,0.00,,,0.00,0.000000,,2013-01-09 05:22:00,
2013-01-08 22:33:00,24.0,17.0,-100.00,SSE,158,9.0,12.0,73,0.00,,,0.00,0.000000,,2013-01-09 05:33:00,
2013-01-08 22:42:00,24.0,17.0,-100.00,SSE,158,9.0,12.0,73,0.00,,,0.00,0.000000,,2013-01-09 05:42:00,
2013-01-08 22:51:00,25.0,14.0,-100.00,SSE,161,9.0,13.0,63,0.00,,,0.00,0.000000,,2013-01-09 05:51:00,
2013-01-08 23:12:00,25.0,14.0,-100.00,SSE,161,9.0,13.0,63,0.00,,,0.00,0.000000,,2013-01-09 06:12:00,
2013-01-08 23:22:00,25.0,14.0,-100.00,SSE,161,9.0,13.0,63,0.00,,,0.00,0.000000,,2013-01-09 06:22:00,
2013-01-08 23:32:00,25.0,14.0,-100.00,SSE,161,9.0,13.0,63,0.00,,,0.00,0.000000,,2013-01-09 06:32:00,
2013-01-08 23:42:00,25.0,14.0,-100.00,SSE,161,9.0,13.0,63,0.00,,,0.00,0.000000,,2013-01-09 06:42:00,
2013-01-08 23:51:00,25.0,13.0,-100.00,SSE,165,11.0,16.0,60,0.00,,,0.00,0.000000,,2013-01-09 06:51:00,